Weather Roundup
Issued by NWS Chicago, IL

Home | Current Version | Previous Version | Text Only | Print | Product List | Glossary Off
Versions: 1 2 3 4 5 6 7 8 9 10 11 12 13 14 15 16 17 18 19 20 21 22 23 24 25 26 27 28 29 30 31 32 33 34 35 36 37 38 39 40 41 42 43 44 45 46 47 48 49 50

000
NZUS59 KLOT 260812
HRRLOT

CHICAGO AREA WEATHER ROUNDUP
NATIONAL WEATHER SERVICE CHICAGO/ROMEOVILLE IL
200 AM CST SUN FEB 26 2017

NOTE: "FAIR" INDICATES FEW OR NO CLOUDS BELOW 12,000 FEET WITH NO
SIGNIFICANT WEATHER AND/OR OBSTRUCTIONS TO VISIBILITY.

* THESE STATIONS ARE NOT UNDER NWS QUALITY CONTROL. THEY ALSO MAY NOT
  REPORT WEATHER SUCH AS PRECIPITATION OR FOG.

ILZ005-006-012>014-019>023-260900-
NORTHEAST ILLINOIS

CITY           SKY/WX    TMP DP  RH WIND       PRES   REMARKS
OHARE          PTCLDY    24  16  71 SW5       30.04S WCI  18
MIDWAY         MOCLDY    24  14  65 SW7       30.06R WCI  16
AURORA         CLOUDY    25  19  78 SW6       30.05S WCI  18
LANSING*       PTCLDY    19  16  88 S6        30.07S WCI  11
JOLIET*        CLOUDY    25  22  86 CALM      30.08S
WAUKEGAN       CLOUDY    21  15  78 SW7       30.01S WCI  12
DUPAGE AIRPORT CLOUDY    22  16  78 SW5       30.04R WCI  16
WHEELING       PTCLDY    23  15  71 SW5       30.05S WCI  17
KANKAKEE*      CLOUDY    23  18  83 CALM      30.09S
MORRIS*        CLOUDY    24  19  83 CALM      30.06S
LEWIS AIRPORT* CLOUDY    22  21  98 SW6       30.07R WCI  14
NORTHERLY ISL    N/A     26  16  65 SW2         N/A
$$

WIZ051-052-058>065-066-070>072-260900-
SOUTHEAST WISCONSIN

CITY           SKY/WX    TMP DP  RH WIND       PRES   REMARKS
MILWAUKEE      PTCLDY    22  13  68 SW9       29.99S WCI  12
KENOSHA*       MOCLDY    21  14  74 SW6       30.00F WCI  13
RACINE*        MOCLDY    22  13  68 W8        30.02S WCI  12
WAUKESHA       CLOUDY    19  12  73 SW7       29.99S WCI  10
WEST BEND      CLEAR     19  16  86 SW3       29.96S
$$

INZ001>003-010>013-019-020-260900-
NORTHWEST INDIANA

CITY           SKY/WX    TMP DP  RH WIND       PRES   REMARKS
GARY*          CLEAR     22  17  79 CALM      30.07F
MICHIGAN CITY* NOT AVBL
RENSSELAER*    NOT AVBL
VALPARAISO     CLOUDY    22  15  75 S6        30.07S WCI  14
$$

LMZ740>746-260900-
SOUTHERN LAKE MICHIGAN

STATION/POSITION TIME  SKY/WX   TEMP WIND        PRES    VSBY
                                AIR  DIR/SP/G
                 (UTC)          (F)  (DEG/KT/KT) (MB)    (MI)
HARRISON CRIB    0740            27  270/ 11/ 13   N/A
BURNHAM HARBOR   0800            26  240/  6/  9   N/A
CALUMET HARBOR   0748            25  190/  4/  5 1017.3S
BURNS HARBOR     0740            26  210/  8/ 10 1018.6R
MICHIGAN CITY    0740            28  250/ 12/ 13   N/A
$$

ABBREVIATIONS USED IN REMARKS
   TC - TEMPERATURE IN CELSIUS
  WCI - WIND CHILL INDEX
   HX - HEAT INDEX
  VSB - VISIBILITY
$$




USA.gov is the U.S. government's official web portal to all federal, state and local government web resources and services.